User: anonymous   Login
Location: Saint-Hippolyte
(43.6394°N, 4.7559°E)
Time: 03:30:10
(UTC+00:00)
Language:

Cosmos 292 Rocket - Orbit

View from above orbital plane
View from above orbital plane
View from above satellite
View from above satellite

Ground track
Ground track

The orbit data is extracted from the following two-line orbital elements,

1 04071U 69070B   21018.70936551  .00000120  00000-0  29477-4 0  9998
2 04071  74.0493 129.4209 0013559 135.8111 224.4142 14.62882030729574
Epoch (UTC): 18 January 2021 17:01:29
Eccentricity: 0.0013559
inclination: 74.0493°
perigee height: 674 km
apogee height: 693 km
right ascension of ascending node: 129.4209°
argument of perigee: 135.8111°
revolutions per day: 14.62882030
mean anomaly at epoch: 224.4142°
orbit number at epoch: 72957

The dashed part of the orbit path shows where the satellite is in the earth's shadow,  

DLR